Regional Weather Roundup
Issued by NWS

Home | Current Version | Previous Version | Graphics & Text | Print | Product List | Glossary On
Versions: 1 2 3 4 5 6 7 8 9 10 11 12 13 14 15 16 17 18 19 20 21 22 23 24 25 26 27
000
ASUS45 KBOU 251107
RWRCO

WEATHER ROUNDUP FOR COLORADO
NATIONAL WEATHER SERVICE DENVER/BOULDER CO
500 AM MDT SAT MAR 25 2017

NOTE: "FAIR" INDICATES FEW OR NO CLOUDS BELOW 12000 FEET WITH NO
SIGNIFICANT WEATHER AND/OR OBSTRUCTIONS TO VISIBILITY.

COZ001>005-013-030-031-251200-
...NORTHWEST COLORADO...

CITY           SKY/WX    TMP DP  RH WIND       PRES   REMARKS
CRAIG          FAIR      24  19  81 W3        30.12F
HAYDEN         FAIR      32  19  59 E12       30.12F WCI  23
MEEKER         FAIR      26  22  84 E5        30.11F WCI  20
MOUNT WERNER   NOT AVBL
STEAMBOAT SPGS FAIR      29  24  81 CALM      30.15F
WALDEN         NOT AVBL
$$

COZ006>008-011-251200-
...WEST CENTRAL VALLEYS...

CITY           SKY/WX    TMP DP  RH WIND       PRES   REMARKS
GRAND JUNCTION FAIR      42  29  59 E15       30.09F
MONTROSE       FAIR      35  27  72 SE5       30.15F WCI  31
EAGLE          FAIR      28  23  81 CALM      30.20F
RIFLE          FAIR      31  25  78 SW6       30.14F WCI  25
DELTA          FAIR      37  26  65 NE7       30.14F
NUCLA          FAIR      32  28  86 SE3       30.17S
$$

COZ017>023-064>068-251200-
...SOUTHWEST COLORADO...

CITY           SKY/WX    TMP DP  RH WIND       PRES   REMARKS
DURANGO        FAIR      30  21  69 CALM      30.17S
CORTEZ         FAIR      27  25  92 NE7       30.15S WCI  19
PAGOSA SPRINGS FAIR      30  30  99 CALM      30.21S
TELLURIDE      NOT AVBL
WOLF CREEK PAS FAIR      25  23  93 SW13      30.33F WCI  13
$$

COZ009-010-012-014-032>034-037-058>063-251200-
...CENTRAL COLORADO...

CITY           SKY/WX    TMP DP  RH WIND       PRES   REMARKS
ASPEN          FAIR      29  21  72 S5        30.18S WCI  24
BUENA VISTA    FAIR      23  17  77 W5        30.17F WCI  17
COPPER MTN     FAIR      28   3  34 S9        30.27F WCI  20
BERTHOUD PASS  FAIR      18   5  57 NW23G30   30.24F WCI   0
COTTONWOOD PAS FAIR      37   7  28 SW3       30.20S
GUNNISON       FAIR      26  22  84 N3          N/A
KREMMLING      FAIR      25  19  80 CALM      30.22R
LEADVILLE      FAIR      18  11  74 NE6       30.21F WCI  10
MONARCH PASS   FAIR      23  18  80 W28       30.36S WCI   6
SALIDA         FAIR      38  22  52 NW15G21   30.23F
SUNLIGHT       FAIR      25  19  80 S9        30.26F WCI  15
WILKERSON PASS FAIR      28  10  47 W12G22    30.24S WCI  18
$$

COZ069>075-251200-
...SAN LUIS VALLEY/SANGRE DE CRISTO MOUNTAINS...

CITY           SKY/WX    TMP DP  RH WIND       PRES   REMARKS
ALAMOSA        FAIR      23  22  96 W5        30.21R WCI  17
LA VETA PASS   NOT AVBL
SAGUACHE       FAIR      28  21  74 NW7       30.21S WCI  21
$$

COZ035-036-038>040-251200-
...NORTHERN COLORADO FRONT RANGE...

CITY           SKY/WX    TMP DP  RH WIND       PRES   REMARKS
DENVER INTL AP FAIR      30  25  81 S9        30.05S WCI  22
DMNS CITY PARK   N/A     33  28  82 SE8       30.06R WCI  26
AURORA         PTCLDY    33  28  82 S10       30.06S WCI  25
FRONT RANGE AP FAIR      32  30  93 S7        30.06S WCI  26
ERIE MUNI ARPT FAIR      29  27  92 CALM      30.05F
BOULDER MUN AP FAIR      34  32  93 CALM      30.04S
CENTENNIAL     FAIR      32  26  78 SE8       30.05F WCI  25
BROOMFIELD     FAIR      36  30  80 CALM      30.06S
FORT COLLINS   FAIR      32  26  78 NE6       30.06  WCI  26
LONGMONT       FAIR      31  28  85 CALM      30.07S
$$

COZ041-046-047-076>085-087-088-251200-
...PIKES PEAK/PALMER DIVIDE AND SOUTHERN FOOTHILLS...

CITY           SKY/WX    TMP DP  RH WIND       PRES   REMARKS
COLO. SPRINGS  FAIR      31  25  78 N6        30.10R WCI  25
A. F. ACADEMY  FAIR      23  22  95 N7        30.09S WCI  14
SCHRIEVER AFB  FAIR      33  27  79 CALM      30.10S
ELLICOTT         N/A    N/A N/A N/A CALM      30.08F
FALCON         FAIR      26  22  85 W5        30.11R WCI  21
FORT CARSON    FAIR      29  24  79 NW3       30.09R
LIMON          FAIR      26  24  92 N5        30.08S WCI  20
MONUMENT HILL  FAIR      30  23  74 SW8       30.09S WCI  23
TRINIDAD       FAIR      32  26  78 SW14      30.11S WCI  22
$$

COZ042>045-048>051-090-091-251200-
...NORTHEAST COLORADO...

CITY           SKY/WX    TMP DP  RH WIND       PRES   REMARKS
GREELEY ARPT   FAIR      23  19  85 NW6       30.07S WCI  16
AKRON          FAIR      36  29  75 SW3       30.06F
BURLINGTON     FAIR      31  29  92 NW9       30.05F WCI  23
WRAY           NOT AVBL
STERLING       FAIR      28  28 100 SW6       30.07S WCI  22
HOLYOKE        NOT AVBL
FORT MORGAN    FAIR      30  29  94 CALM      30.07S
$$

COZ086-089-092>099-251200-
...SOUTHEAST COLORADO...

CITY           SKY/WX    TMP DP  RH WIND       PRES   REMARKS
PUEBLO         FAIR      27  24  89 CALM      30.10R
LA JUNTA       FAIR      33  31  92 S5        30.11R WCI  29
LAMAR          FAIR      27  25  92 SW9       30.08S WCI  18
SPRINGFIELD      N/A     30  28  92 W12       30.08S WCI  20
$$




USA.gov is the U.S. government's official web portal to all federal, state and local government web resources and services.